This is the latest recevied weather packets stored in our database for station/object SR2ATJ-13. If no packets are shown the sender has not sent any weather packets the latest 10 day(s).
| Time | Temp. | Humidity | Pressure | Rain* | Wind** | Luminosity | Snow |
|---|---|---|---|---|---|---|---|
| 1777832704 | 19.44° C | 32% | 1011.4 hPa | - | - | - | - |
| 1777832104 | 20° C | 31% | 1011.4 hPa | - | - | - | - |
| 1777831503 | 20.56° C | 29% | 1011.2 hPa | - | - | - | - |
| 1777830903 | 21.11° C | 29% | 1011.2 hPa | - | - | - | - |
| 1777830303 | 21.67° C | 28% | 1011.1 hPa | - | - | - | - |
| 1777829703 | 22.22° C | 27% | 1011.1 hPa | - | - | - | - |
| 1777829103 | 22.78° C | 26% | 1011 hPa | - | - | - | - |
| 1777828504 | 23.33° C | 26% | 1011 hPa | - | - | - | - |
| 1777827303 | 24.44° C | 24% | 1011 hPa | - | - | - | - |
| 1777826704 | 24.44° C | 24% | 1011.1 hPa | - | - | - | - |
| 1777826103 | 24.44° C | 24% | 1011.1 hPa | - | - | - | - |
| 1777825503 | 25° C | 23% | 1011 hPa | - | - | - | - |
| 1777824904 | 25° C | 24% | 1011.2 hPa | - | - | - | - |
| 1777824303 | 25° C | 23% | 1011.1 hPa | - | - | - | - |
| 1777823103 | 25.56° C | 23% | 1011.2 hPa | - | - | - | - |
| 1777822505 | 26.11° C | 23% | 1011.3 hPa | - | - | - | - |
| 1777821903 | 26.11° C | 23% | 1011.4 hPa | - | - | - | - |
| 1777821303 | 26.11° C | 22% | 1011.4 hPa | - | - | - | - |
| 1777820703 | 26.11° C | 23% | 1011.5 hPa | - | - | - | - |
| 1777820105 | 26.67° C | 23% | 1011.5 hPa | - | - | - | - |
| 1777819503 | 26.67° C | 23% | 1011.7 hPa | - | - | - | - |
| 1777818905 | 27.22° C | 23% | 1011.8 hPa | - | - | - | - |
| 1777818303 | 27.22° C | 23% | 1011.8 hPa | - | - | - | - |
| 1777817703 | 27.22° C | 23% | 1011.9 hPa | - | - | - | - |
| 1777817104 | 27.22° C | 23% | 1012.1 hPa | - | - | - | - |
* Rain since midnight (hover to see other rain measurements)
** Current wind speed in m/s (hover to see current wind gust speed)